Tracking 30995 objects as of 5-Jul-2025
HD Live streaming from Space Station
objects crossing your sky now

STARLINK-31067

Track STARLINK-31067 now!
10-day predictions
STARLINK-31067 is classified as:


NORAD ID: 58608
Int'l Code: 2023-200V
Perigee: 565.5 km
Apogee: 567.0 km
Inclination: 43.0 °
Period: 95.8 minutes
Semi major axis: 6937 km
RCS: Unknown
Launch date: December 19, 2023
Source: United States (US)
Launch site: AIR FORCE EASTERN TEST RANGE (AFETR)
Your satellite tracking list
Your tracking list is empty




NASA's NSSDC Master Catalog

Two Line Element Set (TLE):
1 58608U 23200V   25186.03734526  .00000754  00000-0  70882-4 0  9991
2 58608  43.0036  75.6917 0001061 270.5071  89.5650 15.02536126 86345
Source of the keplerian elements: AFSPC